Location: Briis
(48.6240°N, 2.1211°E)
Time: 10:59:12
(UTC+00:00)

SAR-Lupe-1 - Pass Details

Date: 25 September 2020
Orbit: 481 x 485 km, 98.2° (Epoch: 22 October)

Event Time Altitude Azimuth Distance (km) Brightness Sun altitude
Rises 04:29:04 0° 164° (SSE) 2,536 7.7 -12.9°
Reaches altitude 10° 04:31:07 10° 165° (SSE) 1,661 6.8 -12.6°
Maximum altitude 04:34:41 89° 253° (WSW) 490 4.0 -12.0°
Drops below altitude 10° 04:38:17 10° 346° (NNW) 1,673 6.8 -11.4°
Sets 04:40:22 0° 346° (NNW) 2,558 7.7 -11.1°
